Regional Weather Roundup
Issued by NWS

Home | Current Version | Previous Version | Graphics & Text | Print | Product List | Glossary On
Versions: 1 2 3 4 5 6 7 8 9 10 11 12 13 14 15 16 17 18 19 20 21 22 23 24 25 26 27 28 29 30 31 32 33 34 35 36 37 38 39 40 41 42 43 44 45 46 47 48 49 50
000
ASUS43 KMPX 211201
RWRMN
WEATHER ROUNDUP FOR MINNESOTA
NATIONAL WEATHER SERVICE TWIN CITIES/CHANHASSEN MN
700 AM CDT TUE APR 21 2015


NOTE: "FAIR" INDICATES FEW OR NO CLOUDS BELOW 12,000 FEET WITH NO
SIGNIFICANT WEATHER AND/OR OBSTRUCTIONS TO VISIBILITY. N/A MEANS
CURRENT SKY AND/OR WEATHER CONDITIONS ARE NOT AVAILABLE.

MNZ060>063-068>070-211300-
   Twin Cities Metro

CITY           SKY/WX    TMP DP  RH WIND       PRES   REMARKS
TWIN CITIES    MOCLDY    35  23  61 W18G26    29.55R WCI  24
6HR MIN TEMP:  35; 6HR MAX TEMP:  37; 6HR PCP: TRACE;

ST PAUL        CLOUDY    34  23  64 W17       29.56R WCI  23
CRYSTAL        MOCLDY    35  23  61 W16G29    29.54R WCI  25
BLAINE         CLOUDY    36  25  64 W17G23    29.53S
LAKEVILLE      CLOUDY    34  25  69 NW20G30   29.56R WCI  22
EDEN PRAIRIE   CLOUDY    35  24  64 NW20G26   29.56R WCI  24
6HR MIN TEMP:  35; 6HR MAX TEMP:  37; 6HR PCP: TRACE;

SOUTH ST PAUL  CLOUDY    35  23  61 NW16G23   29.55R WCI  25
LAKE ELMO      CLOUDY    34  27  75 W14G22    29.54R WCI  24
$$
MNZ001>005-007-008-013>017-022>024-027-028-211300-
   Northwest Minnesota

CITY           SKY/WX    TMP DP  RH WIND       PRES   REMARKS
BEMIDJI        LGT SNOW  28  25  87 NW16      29.51R WCI  17
HALLOCK        LGT SNOW  30  27  86 N22G29    29.67R WCI  17
ROSEAU         CLOUDY    30  25  80 NW18G24   29.57R HAZE    WCI  18
WARROAD        LGT SNOW  28  25  86 NW12G22   29.56R WCI  18
THIEF RVR FALL CLOUDY    30  25  80 NW22G30   29.61R WCI  17
CROOKSTON      FLURRIES  30  28  93 N30G40    29.65R WCI  15
FOSSTON        FLURRIES  28  25  86 NW13      29.58R WCI  18
DETROIT LAKES  MIX PCPN  32  30  93 NW24G30   29.59R WCI  19
MOORHEAD       LGT RAIN  34  27  75 NW22G30   29.67R WCI  22
PARK RAPIDS    FLURRIES  32  24  72 NW20G28   29.52R WCI  20
MAHNOMEN       FLURRIES  30  27  88 NW21G26   29.58S WCI  17
$$
MNZ006-009>011-018-025>026-211300-
   North Central Minnesota

CITY           SKY/WX    TMP DP  RH WIND       PRES   REMARKS
BAUDETTE       LGT SNOW  29  24  82 NW21      29.49R WCI  16
FLAG ISLAND    CLOUDY    28  25  86 N24G36    29.53R WCI  14
INTL FALLS     LGT SNOW  27  22  81 N15G24    29.43R WCI  15
6HR MIN TEMP:  27; 6HR MAX TEMP:  31; 6HR PCP:  0.04;

WASKISH        LGT SNOW  28  27  93 NW12G20   29.50R WCI  18
BIG FORK       LGT SNOW  28  27  93 NW9       29.43R WCI  20
LONGVILLE      LGT SNOW  30  27  86 NW16G25   29.47R WCI  19
GRAND RAPIDS   CLOUDY    30  25  80 NW20G26   29.42S WCI  18
ORR            LGT SNOW  28  25  86 NW14G22   29.36R WCI  17
COOK           SNOW      28  27  93 NW9G16    29.38R VSB 1/2 WCI  20
$$
MNZ012-019>021-037-211300-
   Northeast Minnesota

CITY           SKY/WX    TMP DP  RH WIND       PRES   REMARKS
DULUTH         LGT SNOW  31  26  82 W14       29.36S WCI  21
6HR MIN TEMP:  31; 6HR MAX TEMP:  33; 6HR PCP:  0.01;

ELY            CLOUDY    28  25  86 NW8G17    29.32R WCI  20
HIBBING        LGT SNOW  30  26  85 NW16G22   29.39R FOG     WCI  19
EVELETH        LGT SNOW  32  30  93 NW13G25   29.37R WCI  22
DULUTH HARBOR  CLOUDY    36  30  80 W18G24    29.41R
TWO HARBORS    LGT SNOW  36  28  75 W7        29.34R
SILVER BAY     FLURRIES  34  28  80 W5        29.31R WCI  30
GRAND MARAIS     N/A     34  26  72 W3        29.29R
G MARAIS ARPRT MOCLDY    27  21  80 NW6       29.24R WCI  20
$$
MNZ029>031-032-039>041-046>048-054>057-064-211300-
   West Central Minnesota

CITY           SKY/WX    TMP DP  RH WIND       PRES   REMARKS
FERGUS FALLS   MIX PCPN  32  27  80 NW22G31   29.65S WCI  19
WHEATON        DRIZZLE   34  25  69 NW17G23   29.70R WCI  23
MORRIS         CLOUDY    34  27  75 NW21G28   29.64R WCI  22
ALEXANDRIA     CLOUDY    32  25  75 NW23G31   29.59R WCI  19
ELBOW LAKE     CLOUDY    32  28  86 NW23G30   29.63R WCI  19
WADENA         CLOUDY    30  25  80 NW17G24   29.55R WCI  18
GLENWOOD       CLOUDY    32  27  80 W26       29.59S WCI  18
APPLETON       PTCLDY    36  27  69 NW21G28   29.67R
BENSON         FLURRIES  34  28  80 NW17G23   29.64R WCI  23
ORTONVILLE     CLOUDY    36  25  64 NW21G32   29.68R
MADISON        CLOUDY    34  27  75 W17       29.69R WCI  23
WILLMAR        MOCLDY    34  28  80 NW18G26   29.63R WCI  23
$$
MNZ033>034-036-042>043-049>051-058-059-211300-
   Central Minnesota

CITY           SKY/WX    TMP DP  RH WIND       PRES   REMARKS
ST CLOUD       CLOUDY    33  23  66 W22G32    29.54R WCI  21
6HR MIN TEMP:  33; 6HR MAX TEMP:  35;

SAUK CENTRE    CLOUDY    32  26  77 W16G25    29.57S WCI  21
PAYNESVILLE    CLOUDY    30  26  83 SW15G24   29.59S WCI  19
AITKIN         LGT SNOW  34  27  75 W6        29.45S WCI  29
PINE RIVER     FLURRIES  30  25  80 NW10G18   29.53R WCI  21
BRAINERD       LGT SNOW  31  26  82 NW12      29.50R WCI  22
STAPLES        CLOUDY    30  25  80 NW17G24   29.53R WCI  18
LONG PRAIRIE   CLOUDY    32  27  80 W20       29.56R WCI  20
LITTLE FALLS   MOCLDY    32  27  80 W14G20    29.53R WCI  22
LITCHFIELD     CLOUDY    36  28  75 NW21G30   29.60R
BUFFALO        CLOUDY    34  24  66 W14G23    29.57S WCI  25
MAPLE LAKE     CLOUDY    35  26  71 W14G21    29.57R WCI  25
$$
MNZ037-044-045-052-053-211300-
   East Central Minnesota

CITY           SKY/WX    TMP DP  RH WIND       PRES   REMARKS
PRINCETON      CLOUDY    34  25  69 W14G20    29.53R WCI  24
MORA           LGT SNOW  32  28  86 W9        29.51R WCI  24
CAMBRIDGE      FLURRIES  36  25  64 W15       29.50R
RUSH CITY      CLOUDY    32  27  83 W15       29.50R WCI  21
MOOSE LAKE     LGT SNOW  32  28  86 W7        29.42S WCI  26
HINCKLEY       LGT SNOW  32  30  93 W10       29.47R WCI  24
CLOQUET        LGT SNOW  30  27  86 W10       29.40R WCI  21
MCGREGOR       CLOUDY    32  28  86 W8        29.45R WCI  25
$$
MNZ071>073-080-081-089-090-097-098-211300-
   Southwest Minnesota

CITY           SKY/WX    TMP DP  RH WIND       PRES   REMARKS
MONTEVIDEO     CLOUDY    34  27  75 NW16G23   29.67R WCI  23
GRANITE FALLS  CLOUDY    33  27  78 W16       29.69R WCI  22
CANBY          PTCLDY    32  25  74 W21       29.72R WCI  20
MARSHALL       PTCLDY    32  19  59 NW18      29.69R WCI  20
REDWOOD FALLS  CLOUDY    35  26  69 NW16      29.65R WCI  25
OLIVIA         CLOUDY    32  27  80 NW15G23   29.63S WCI  22
PIPESTONE      PTCLDY    30  25  80 N14       29.71R WCI  20
WINDOM         CLEAR     32  27  80 W18G30    29.67R WCI  20
WORTHINGTON    PTCLDY    30  21  69 W15       29.71R WCI  19
JACKSON        CLEAR     34  27  75 W16G23    29.68R WCI  23
TRACY          CLEAR     33  25  74 NW15G23   29.70R WCI  22
SLAYTON        CLEAR     30  26  85 NW16      29.70R WCI  19
$$
MNZ065>067-074>077-082>085-091>093-211300-
   South Central Minnesota

CITY           SKY/WX    TMP DP  RH WIND       PRES   REMARKS
MANKATO        CLOUDY    36  25  64 NW20G37   29.62R
NEW ULM        CLOUDY    34  25  69 NW22G31   29.64R WCI  22
ST JAMES       PTCLDY    36  28  75 W23       29.66R
FAIRMONT       CLEAR     36  25  64 W18       29.65R
GLENCOE        CLOUDY    35  28  77 NW23G30   29.60R WCI  23
FARIBAULT      CLOUDY    36  28  75 W20G32    29.58R
OWATONNA       CLOUDY    36  28  75 W21G36    29.59R
WASECA         CLOUDY    34  28  80 W16       29.61S WCI  23
ALBERT LEA     CLOUDY    36  28  75 W15G22    29.60S
$$
MNZ078>079-086>088-094>096-211300-
   Southeast Minnesota

CITY           SKY/WX    TMP DP  RH WIND       PRES   REMARKS
ROCHESTER      CLOUDY    34  27  75 NW25G36   29.55R WCI  21
6HR MIN TEMP:  34; 6HR MAX TEMP:  35;

RED WING       CLOUDY    36  25  64 NW13G21   29.53R
STANTON        CLOUDY    37  27  69 NW14      29.55R
DODGE CENTER   CLOUDY    36  28  75 W18G28    29.56R
WINONA         CLOUDY    37  28  70 W14       29.54R
AUSTIN         CLOUDY    36  27  69 W15G28    29.59R
PRESTON        CLOUDY    34  28  78 W24G32    29.57R WCI  21
$$
ABBREVIATIONS USED IN REMARKS
   TC - TEMPERATURES IN CELSIUS
  WCI - WIND CHILL INDEX
   HX - HEAT INDEX
  VSB - VISIBILITY
$$


USA.gov is the U.S. government's official web portal to all federal, state and local government web resources and services.